Weather in Utevka

Russia / Samara Oblast     52°54′20″N   50°57′03″E
temp.,
°C
wind,
m/s
gust,
m/s
humid.,
%
clouds,
%
prec.,
mm/h
press.,
hPa
HPBL,
m
22 october, fri
fri2201:00+9wsw71582100 0.0 1006606
04:00+9sw51283100 0.0 1007409
07:00+8sw61483100 0.0 1007402
10:00+10sw71574100 0.0 1007617
13:00+12sw81555100 0.0 1006821
16:00+12sw91660100 0.0 1007869
19:00+12sw8166860 0.0 1008804
22:00+12sw71672100 0.0 1009679
23 october, sat
sat2301:00+11wsw6147744 0.0 1010527
04:00+9sw5118833 0.0 1011293
07:00+8sw4119157 0.0 1012266
10:00+11sw6127413 0.0 1013614
13:00+14wsw812407 0.0 10141423
16:00+14wsw51042100 0.0 10141109
19:00+11ssw41157100 0.0 1014237
22:00+12ssw61357100 0.0 1013430
24 october, sun
sun2401:00+11ssw41083100 0.7 1011449
04:00+11sw51292100 3.4 1010717
07:00+11wsw41083100 1.1 1009498
10:00+10wnw6963100 1.3 1011737
13:00+11w684889 0.0 10131221
16:00+10w464997 0.0 10131219
19:00+7wnw226229 0.0 101425
22:00+6wsw1265100 0.0 101511
25 october, mon
mon2501:00+4nw227455 0.0 101620
04:00+4nw117698 0.0 101610
07:00+5nw117197 0.0 101614
10:00+7wsw125575 0.0 1017390
13:00+8w465357 0.0 10181394
16:00+7nw575688 0.2 10181465
19:00+3nnw7117521 0.1 1022837
22:00+1nnw611665 0.1 1024903
26 october, tue
tue2601:000nnw510715 0.0 1026624
04:00−1nnw410775 0.0 1028507
07:00−2nw38855 0.0 1030286
10:00+1nw46665 0.0 1031561
13:00+4wnw454254 0.0 1030919
16:00+4w463659 0.0 1029839
19:00+2sw410456 0.0 1029269
22:00+1wsw512497 0.0 1028327